sat.trackr.live / text

‹ back to catalog

STARLINK-11387 [DTC]

NORAD 62090 · 2024-220C

PAYLOAD ACTIVE UNKNOWN

§ Identity

Operator
Country
US
Launch date
2024-11-25
Launch site
AFETR
Launch vehicle
Mass (kg)
RCS (m²)

Purposes: comms

External: N2YO · Heavens-Above · Gunter

§ Orbital elements

Epoch: 2026-05-25T03:15:40.908096Z

Period
91.67 min
Inclination
43.0013°
Eccentricity
0.0001510
Mean motion
15.70890475 rev/d
Perigee alt
355.3 km
Apogee alt
357.4 km
Semi-major
6,734.5 km
B*
9.9029e-4
RAAN
302.5059°
Arg perigee
291.2210°
Mean anomaly
68.8497°
Rev number
8,707

§ Raw data

STARLINK-11387 [DTC]1 62090U 24220C   26145.13589014  .00128881  00000+0  99029-3 0  99952 62090  43.0013 302.5059 0001510 291.2210  68.8497 15.70890475 87078

JSON: /api/v1/satellites/62090 · /tle

For live sub-satellite position, see the globe view (requires WebGL).

§ Visibility from observer

Set your observer location to see the next 7 days of passes ≥ 10°. The values pass through the URL so the page stays shareable.

No JS? Fill the form by hand. The geolocation button needs JavaScript.